41.8°F
Current conditions from King Hill
Updated every 5 minutes
 
  Saturday October 25, 2014

Station Historical Data
Daily Summary for April 29, 2012 Units:  Metric    English   Both
« Previous Day
Next Day »
Daily Weekly Monthly Yearly Custom
  High: Low: Average:
Temperature: 8.4 °C -1.4 °C 3.6 °C
Dew Point: -5.8 °C -10.9 °C -8.5 °C
Humidity: 69% 26% 43%
Wind Speed: 19.3km/h 1.6km/h 9.3km/h
Wind Gust: 40.2km/h - -
Wind- - NW
Pressure: 1023.9 hPa 1018.2 hPa -
Precipitation: 0 mm    
Historical Graphs
 
 
Tabular Data for April 29, 2012
Time Temperature Dew Point Pressure Wind Wind Speed Wind Gust Humidity Daily Rainfall
00:04 1.3 °C -8.8 °C 1018.8 hPa WSW 1.6 km/h 9.7 km/h 47% 0 mm
00:10 1.3 °C -8.5 °C 1018.8 hPa Calm   9.7 km/h 48% 0 mm
00:14 1.2 °C -8.6 °C 1018.8 hPa Calm   9.7 km/h 48% 0 mm
00:19 1.1 °C -8.7 °C 1018.8 hPa Calm   3.2 km/h 48% 0 mm
00:24 1.1 °C -8.7 °C 1018.8 hPa WSW 1.6 km/h 8 km/h 48% 0 mm
00:29 1 °C -8.8 °C 1019.2 hPa Calm   8 km/h 48% 0 mm
00:34 1.1 °C -8.5 °C 1018.8 hPa Calm   12.9 km/h 49% 0 mm
00:39 1 °C -8.5 °C 1018.8 hPa Calm   12.9 km/h 49% 0 mm
00:44 0.9 °C -8.6 °C 1018.8 hPa Calm   4.8 km/h 49% 0 mm
00:49 0.8 °C -8.7 °C 1018.8 hPa Calm   3.2 km/h 49% 0 mm
00:54 0.8 °C -8.7 °C 1018.8 hPa West 1.6 km/h 6.4 km/h 49% 0 mm
00:59 0.7 °C -8.3 °C 1018.8 hPa Calm   6.4 km/h 51% 0 mm
01:04 0.5 °C -8.5 °C 1018.8 hPa Calm   3.2 km/h 51% 0 mm
01:09 0.4 °C -8.6 °C 1018.8 hPa Calm   3.2 km/h 51% 0 mm
01:14 0.3 °C -8.6 °C 1018.8 hPa Calm   1.6 km/h 51% 0 mm
01:19 0.3 °C -8.4 °C 1018.8 hPa Calm   1.6 km/h 52% 0 mm
01:24 0.3 °C -8.4 °C 1018.8 hPa Calm     52% 0 mm
01:29 0.3 °C -8.1 °C 1018.8 hPa Calm     53% 0 mm
01:34 0.3 °C -8.2 °C 1018.8 hPa Calm     53% 0 mm
01:39 0.2 °C -8.1 °C 1018.8 hPa Calm   4.8 km/h 54% 0 mm
01:44 0.1 °C -7.9 °C 1018.8 hPa Calm   4.8 km/h 55% 0 mm
01:49 0.1 °C -7.9 °C 1018.8 hPa Calm   1.6 km/h 55% 0 mm
01:54 0 °C -7.9 °C 1018.8 hPa Calm     55% 0 mm
01:59 0 °C -7.7 °C 1018.8 hPa Calm   1.6 km/h 56% 0 mm
02:04 -0.1 °C -7.8 °C 1018.5 hPa Calm   6.4 km/h 56% 0 mm
02:09 -0.1 °C -7.6 °C 1018.5 hPa Calm   6.4 km/h 57% 0 mm
02:14 -0.2 °C -7.7 °C 1018.5 hPa Calm   1.6 km/h 57% 0 mm
02:19 -0.3 °C -7.6 °C 1018.8 hPa Calm   6.4 km/h 58% 0 mm
02:24 -0.3 °C -7.6 °C 1018.5 hPa West 1.6 km/h 6.4 km/h 58% 0 mm
02:34 -0.5 °C -7.6 °C 1018.5 hPa Calm   3.2 km/h 59% 0 mm
02:39 -0.6 °C -7.4 °C 1018.5 hPa Calm   3.2 km/h 60% 0 mm
02:44 -0.6 °C -7.4 °C 1018.5 hPa Calm   3.2 km/h 60% 0 mm
02:49 -0.6 °C -7.2 °C 1018.5 hPa Calm   1.6 km/h 61% 0 mm
02:54 -0.6 °C -7.2 °C 1018.5 hPa Calm   1.6 km/h 61% 0 mm
02:59 -0.5 °C -7.1 °C 1018.5 hPa Calm   3.2 km/h 61% 0 mm
03:04 -0.5 °C -7.1 °C 1018.5 hPa Calm   3.2 km/h 61% 0 mm
03:09 -0.6 °C -7.2 °C 1018.2 hPa Calm     61% 0 mm
03:14 -0.5 °C -7.1 °C 1018.2 hPa Calm   4.8 km/h 61% 0 mm
03:19 -0.4 °C -7.1 °C 1018.2 hPa Calm   4.8 km/h 61% 0 mm
03:24 -0.5 °C -6.9 °C 1018.2 hPa West 1.6 km/h 8 km/h 62% 0 mm
03:29 -0.5 °C -6.9 °C 1018.2 hPa Calm   8 km/h 62% 0 mm
03:34 -0.5 °C -6.9 °C 1018.2 hPa Calm   3.2 km/h 62% 0 mm
03:39 -0.4 °C -6.8 °C 1018.2 hPa Calm   4.8 km/h 62% 0 mm
03:44 -0.5 °C -6.7 °C 1018.2 hPa Calm   4.8 km/h 63% 0 mm
03:49 -0.6 °C -6.7 °C 1018.2 hPa Calm   6.4 km/h 63% 0 mm
03:54 -0.6 °C -6.8 °C 1018.2 hPa West 1.6 km/h 8 km/h 63% 0 mm
03:59 -0.6 °C -6.7 °C 1018.2 hPa Calm   8 km/h 63% 0 mm
04:04 -0.5 °C -6.5 °C 1018.2 hPa Calm   4.8 km/h 64% 0 mm
04:09 -0.6 °C -6.5 °C 1018.2 hPa Calm   4.8 km/h 64% 0 mm
04:14 -0.6 °C -6.5 °C 1018.2 hPa Calm   6.4 km/h 64% 0 mm
04:19 -0.6 °C -6.5 °C 1018.2 hPa Calm   6.4 km/h 64% 0 mm
04:24 -0.6 °C -6.3 °C 1018.2 hPa Calm   4.8 km/h 65% 0 mm
04:29 -0.6 °C -6.3 °C 1018.2 hPa Calm   3.2 km/h 65% 0 mm
04:34 -0.6 °C -6.4 °C 1018.2 hPa Calm   3.2 km/h 65% 0 mm
04:39 -0.7 °C -6.2 °C 1018.2 hPa Calm   3.2 km/h 66% 0 mm
04:44 -0.8 °C -6.3 °C 1018.2 hPa Calm   3.2 km/h 66% 0 mm
04:49 -0.9 °C -6.2 °C 1018.2 hPa Calm     67% 0 mm
04:54 -0.9 °C -6.3 °C 1018.2 hPa Calm   3.2 km/h 67% 0 mm
04:59 -1 °C -6.3 °C 1018.2 hPa Calm   3.2 km/h 67% 0 mm
05:04 -1.2 °C -6.3 °C 1018.2 hPa Calm   1.6 km/h 68% 0 mm
05:09 -1.3 °C -6.4 °C 1018.2 hPa Calm   1.6 km/h 68% 0 mm
05:14 -1.4 °C -6.3 °C 1018.2 hPa Calm   3.2 km/h 69% 0 mm
05:19 -1.3 °C -6.4 °C 1018.2 hPa Calm   8 km/h 68% 0 mm
05:24 -1.3 °C -6.4 °C 1018.2 hPa Calm   8 km/h 68% 0 mm
05:29 -1.3 °C -6.4 °C 1018.2 hPa West 3.2 km/h 8 km/h 68% 0 mm
05:34 -1.2 °C -6.4 °C 1018.2 hPa Calm   8 km/h 68% 0 mm
05:39 -1.1 °C -6.3 °C 1018.2 hPa Calm   6.4 km/h 68% 0 mm
05:44 -1.1 °C -6.2 °C 1018.2 hPa Calm   6.4 km/h 68% 0 mm
05:49 -1.1 °C -6.4 °C 1018.2 hPa West 3.2 km/h 12.9 km/h 67% 0 mm
05:54 -0.9 °C -6.3 °C 1018.2 hPa West 1.6 km/h 12.9 km/h 67% 0 mm
05:59 -0.9 °C -6.2 °C 1018.2 hPa Calm   6.4 km/h 67% 0 mm
06:04 -0.8 °C -6.2 °C 1018.2 hPa West 3.2 km/h 9.7 km/h 67% 0 mm
06:09 -0.6 °C -6.3 °C 1018.2 hPa West 6.4 km/h 14.5 km/h 65% 0 mm
06:14 -0.2 °C -6.2 °C 1018.2 hPa WNW 3.2 km/h 14.5 km/h 64% 0 mm
06:19 -0.2 °C -6.2 °C 1018.2 hPa WNW 3.2 km/h 11.3 km/h 64% 0 mm
06:24 0.1 °C -6.2 °C 1018.2 hPa WNW 1.6 km/h 9.7 km/h 63% 0 mm
06:29 0.2 °C -6.1 °C 1018.2 hPa WNW 1.6 km/h 9.7 km/h 63% 0 mm
06:34 0.3 °C -6.1 °C 1018.5 hPa West 1.6 km/h 12.9 km/h 62% 0 mm
06:39 0.5 °C -6.4 °C 1018.5 hPa WNW 8 km/h 19.3 km/h 60% 0 mm
06:44 0.6 °C -6.1 °C 1018.5 hPa WNW 3.2 km/h 19.3 km/h 61% 0 mm
06:49 0.6 °C -6.1 °C 1018.5 hPa West 3.2 km/h 9.7 km/h 61% 0 mm
06:54 0.6 °C -6.1 °C 1018.5 hPa WNW 4.8 km/h 14.5 km/h 61% 0 mm
06:59 0.7 °C -6.2 °C 1018.5 hPa WNW 3.2 km/h 17.7 km/h 60% 0 mm
07:04 0.7 °C -6.2 °C 1018.5 hPa WNW 4.8 km/h 17.7 km/h 60% 0 mm
07:09 0.8 °C -6.1 °C 1018.8 hPa WNW 3.2 km/h 11.3 km/h 60% 0 mm
07:14 0.8 °C -6.1 °C 1018.8 hPa WNW 6.4 km/h 12.9 km/h 60% 0 mm
07:19 0.9 °C -5.9 °C 1018.8 hPa WNW 6.4 km/h 20.9 km/h 60% 0 mm
07:24 1.2 °C -6.2 °C 1018.8 hPa NW 8 km/h 20.9 km/h 58% 0 mm
07:29 1.3 °C -5.8 °C 1018.8 hPa WNW 3.2 km/h 14.5 km/h 59% 0 mm
07:34 1.6 °C -5.8 °C 1018.8 hPa WNW 4.8 km/h 14.5 km/h 58% 0 mm
07:39 1.7 °C -5.9 °C 1018.8 hPa NNW 4.8 km/h 14.5 km/h 57% 0 mm
07:45 1.9 °C -6.2 °C 1018.8 hPa NW 8 km/h 20.9 km/h 55% 0 mm
07:54 2.2 °C -6.9 °C 1018.8 hPa WNW 12.9 km/h 22.5 km/h 51% 0 mm
07:59 2.1 °C -7.5 °C 1018.8 hPa NW 9.7 km/h 22.5 km/h 49% 0 mm
08:04 2.2 °C -8 °C 1018.8 hPa NW 12.9 km/h 25.7 km/h 47% 0 mm
08:09 2.4 °C -7.7 °C 1018.8 hPa NW 6.4 km/h 25.7 km/h 47% 0 mm
08:14 2.7 °C -7.5 °C 1018.8 hPa NNW 6.4 km/h 16.1 km/h 47% 0 mm
08:19 2.8 °C -7.9 °C 1018.8 hPa WNW 12.9 km/h 22.5 km/h 45% 0 mm
08:24 3 °C -7.2 °C 1019.2 hPa NW 4.8 km/h 22.5 km/h 47% 0 mm
08:29 2.7 °C -7.5 °C 1019.2 hPa NW 8 km/h 22.5 km/h 47% 0 mm
08:34 2.7 °C -8.4 °C 1019.2 hPa WNW 16.1 km/h 25.7 km/h 44% 0 mm
08:44 2.9 °C -7.8 °C 1019.2 hPa NNW 9.7 km/h 22.5 km/h 45% 0 mm
08:49 3 °C -7.5 °C 1019.2 hPa NW 6.4 km/h 22.5 km/h 46% 0 mm
08:54 3.4 °C -6.9 °C 1019.2 hPa NNW 4.8 km/h 22.5 km/h 47% 0 mm
08:59 3.3 °C -6.9 °C 1019.2 hPa NNW 3.2 km/h 27.4 km/h 47% 0 mm
09:04 3.6 °C -7.3 °C 1019.5 hPa NNW 11.3 km/h 27.4 km/h 45% 0 mm
09:09 3.5 °C -8.2 °C 1019.2 hPa NNW 12.9 km/h 27.4 km/h 42% 0 mm
09:14 3.6 °C -8.1 °C 1019.2 hPa NNW 3.2 km/h 27.4 km/h 42% 0 mm
09:24 3.6 °C -7.8 °C 1019.5 hPa NNW 12.9 km/h 24.1 km/h 43% 0 mm
09:29 3.7 °C -8 °C 1019.5 hPa NW 11.3 km/h 25.7 km/h 42% 0 mm
09:34 3.9 °C -7.8 °C 1019.5 hPa NW 9.7 km/h 25.7 km/h 42% 0 mm
09:39 3.8 °C -7.9 °C 1019.5 hPa WNW 12.9 km/h 29 km/h 42% 0 mm
09:44 3.8 °C -7.9 °C 1019.5 hPa WNW 11.3 km/h 29 km/h 42% 0 mm
09:49 4.1 °C -7.7 °C 1019.5 hPa NW 12.9 km/h 25.7 km/h 42% 0 mm
09:59 3.7 °C -8.4 °C 1019.5 hPa NW 14.5 km/h 37 km/h 41% 0 mm
10:04 4.1 °C -9 °C 1019.5 hPa NW 9.7 km/h 32.2 km/h 38% 0 mm
10:09 4.3 °C -9.1 °C 1019.5 hPa NNW 8 km/h 25.7 km/h 37% 0 mm
10:14 4.6 °C -9.6 °C 1019.5 hPa NW 11.3 km/h 22.5 km/h 35% 0 mm
10:19 4.6 °C -9.6 °C 1019.5 hPa WNW 19.3 km/h 27.4 km/h 35% 0 mm
10:24 4.8 °C -9.7 °C 1019.2 hPa NNW 9.7 km/h 27.4 km/h 34% 0 mm
10:29 5.1 °C -9.5 °C 1019.5 hPa NW 11.3 km/h 25.7 km/h 34% 0 mm
10:34 4.5 °C -9.7 °C 1019.5 hPa NNW 9.7 km/h 27.4 km/h 35% 0 mm
10:39 4.8 °C -9.3 °C 1019.5 hPa NNW 11.3 km/h 27.4 km/h 35% 0 mm
10:44 5.1 °C -8.8 °C 1019.2 hPa NNW 6.4 km/h 24.1 km/h 36% 0 mm
10:49 5.2 °C -9.8 °C 1019.5 hPa NW 12.9 km/h 25.7 km/h 33% 0 mm
10:54 5.2 °C -10.2 °C 1019.5 hPa NW 14.5 km/h 25.7 km/h 32% 0 mm
10:59 5.2 °C -9.4 °C 1019.2 hPa WNW 12.9 km/h 25.7 km/h 34% 0 mm
11:04 5.2 °C -10.6 °C 1019.2 hPa NW 11.3 km/h 25.7 km/h 31% 0 mm
11:09 5 °C -9.6 °C 1019.2 hPa WNW 12.9 km/h 33.8 km/h 34% 0 mm
11:14 5.2 °C -10.9 °C 1019.2 hPa NW 16.1 km/h 33.8 km/h 30% 0 mm
11:19 5.3 °C -10.1 °C 1019.2 hPa NW 11.3 km/h 32.2 km/h 32% 0 mm
11:24 5.7 °C -9.4 °C 1019.2 hPa NW 6.4 km/h 27.4 km/h 33% 0 mm
11:34 5.9 °C -10.8 °C 1019.2 hPa NNW 12.9 km/h 33.8 km/h 29% 0 mm
11:39 5.8 °C -9.6 °C 1019.2 hPa NNW 9.7 km/h 33.8 km/h 32% 0 mm
11:44 6.1 °C -8.6 °C 1019.2 hPa North 9.7 km/h 24.1 km/h 34% 0 mm
11:49 6.3 °C -8.4 °C 1019.5 hPa NNW 8 km/h 24.1 km/h 34% 0 mm
11:54 6.3 °C -8.8 °C 1019.5 hPa NNW 8 km/h 22.5 km/h 33% 0 mm
11:59 6.4 °C -8.7 °C 1019.5 hPa NNW 16.1 km/h 37 km/h 33% 0 mm
12:04 6.1 °C -9.4 °C 1019.5 hPa NW 8 km/h 37 km/h 32% 0 mm
12:09 6.1 °C -10.2 °C 1019.5 hPa NNW 16.1 km/h 35.4 km/h 30% 0 mm
12:14 6.1 °C -8.6 °C 1019.5 hPa NNW 9.7 km/h 35.4 km/h 34% 0 mm
12:19 6.3 °C -9.2 °C 1019.5 hPa NNW 14.5 km/h 27.4 km/h 32% 0 mm
12:24 6.3 °C -8.8 °C 1019.5 hPa NNW 8 km/h 27.4 km/h 33% 0 mm
12:29 6.2 °C -10.6 °C 1019.5 hPa WNW 4.8 km/h 25.7 km/h 29% 0 mm
12:39 6.3 °C -8.1 °C 1018.8 hPa NNW 6.4 km/h 25.7 km/h 35% 0 mm
12:49 6.3 °C -7.7 °C 1019.2 hPa North 11.3 km/h 25.7 km/h 36% 0 mm
12:59 6.2 °C -9.3 °C 1019.2 hPa NW 12.9 km/h 37 km/h 32% 0 mm
13:04 6.4 °C -9.1 °C 1019.2 hPa NNW 9.7 km/h 30.6 km/h 32% 0 mm
13:09 6.7 °C -9.2 °C 1019.2 hPa WNW 12.9 km/h 25.7 km/h 31% 0 mm
13:14 6.6 °C -8.9 °C 1019.2 hPa NW 19.3 km/h 32.2 km/h 32% 0 mm
13:19 6.2 °C -9.3 °C 1019.2 hPa WNW 12.9 km/h 37 km/h 32% 0 mm
13:29 6.4 °C -9.9 °C 1019.5 hPa NNW 9.7 km/h 40.2 km/h 30% 0 mm
13:34 6.7 °C -8.9 °C 1019.5 hPa NNW 11.3 km/h 30.6 km/h 32% 0 mm
13:39 7.1 °C -8.5 °C 1019.5 hPa NNW 9.7 km/h 30.6 km/h 32% 0 mm
13:44 7.5 °C -8.6 °C 1019.5 hPa NNW 8 km/h 24.1 km/h 31% 0 mm
13:49 7.6 °C -8.5 °C 1019.5 hPa NW 8 km/h 20.9 km/h 31% 0 mm
13:54 7.3 °C -8.7 °C 1019.5 hPa NNW 6.4 km/h 35.4 km/h 31% 0 mm
13:59 7.2 °C -9.2 °C 1019.2 hPa NW 12.9 km/h 35.4 km/h 30% 0 mm
14:04 7.4 °C -8.2 °C 1019.9 hPa NNW 11.3 km/h 30.6 km/h 32% 0 mm
14:09 7.3 °C -8.7 °C 1019.5 hPa NNW 12.9 km/h 33.8 km/h 31% 0 mm
14:14 6.8 °C -9.1 °C 1019.5 hPa WNW 12.9 km/h 33.8 km/h 31% 0 mm
14:19 7.1 °C -8.2 °C 1019.5 hPa NNW 12.9 km/h 30.6 km/h 33% 0 mm
14:29 7.4 °C -9.1 °C 1019.9 hPa NNW 11.3 km/h 33.8 km/h 30% 0 mm
14:34 7.4 °C -9.4 °C 1019.5 hPa NNW 11.3 km/h 33.8 km/h 29% 0 mm
14:39 7.2 °C -10.1 °C 1019.5 hPa NW 14.5 km/h 33.8 km/h 28% 0 mm
14:44 7.7 °C -8.4 °C 1019.5 hPa NNW 12.9 km/h 33.8 km/h 31% 0 mm
14:49 7.8 °C -9.1 °C 1019.5 hPa NNW 11.3 km/h 27.4 km/h 29% 0 mm
14:54 7.8 °C -9.2 °C 1019.5 hPa NNW 12.9 km/h 30.6 km/h 29% 0 mm
14:59 7.8 °C -9.2 °C 1019.5 hPa North 12.9 km/h 30.6 km/h 29% 0 mm
15:04 7.8 °C -8.3 °C 1019.5 hPa North 11.3 km/h 35.4 km/h 31% 0 mm
15:09 8.1 °C -8.9 °C 1019.5 hPa NNW 14.5 km/h 35.4 km/h 29% 0 mm
15:14 8.3 °C -9.7 °C 1019.5 hPa NNW 12.9 km/h 29 km/h 27% 0 mm
15:19 8.2 °C -8.4 °C 1019.5 hPa NNW 6.4 km/h 27.4 km/h 30% 0 mm
15:24 8 °C -9.9 °C 1019.5 hPa NW 19.3 km/h 29 km/h 27% 0 mm
15:29 7.8 °C -8.7 °C 1019.9 hPa NNW 17.7 km/h 33.8 km/h 30% 0 mm
15:34 7.9 °C -9.5 °C 1019.5 hPa NW 14.5 km/h 33.8 km/h 28% 0 mm
15:39 8 °C -8.1 °C 1019.5 hPa NNW 11.3 km/h 32.2 km/h 31% 0 mm
15:44 8.1 °C -8.5 °C 1019.9 hPa NW 17.7 km/h 32.2 km/h 30% 0 mm
15:49 8.2 °C -8.3 °C 1019.9 hPa NNW 9.7 km/h 30.6 km/h 30% 0 mm
15:54 8.2 °C -8.8 °C 1019.9 hPa NW 9.7 km/h 29 km/h 29% 0 mm
15:59 8.1 °C -9.3 °C 1019.9 hPa NNW 16.1 km/h 32.2 km/h 28% 0 mm
16:04 8.3 °C -7.9 °C 1019.9 hPa North 6.4 km/h 32.2 km/h 31% 0 mm
16:09 8.2 °C -9.7 °C 1019.9 hPa NW 19.3 km/h 33.8 km/h 27% 0 mm
16:14 7.9 °C -9.1 °C 1019.9 hPa NNW 9.7 km/h 37 km/h 29% 0 mm
16:19 8.1 °C -8.9 °C 1020.2 hPa NNW 12.9 km/h 37 km/h 29% 0 mm
16:24 8 °C -9.9 °C 1020.2 hPa NW 16.1 km/h 32.2 km/h 27% 0 mm
16:29 7.8 °C -9.1 °C 1020.2 hPa NW 12.9 km/h 27.4 km/h 29% 0 mm
16:34 7.4 °C -9.4 °C 1019.9 hPa NW 14.5 km/h 33.8 km/h 29% 0 mm
16:39 8 °C -8.9 °C 1020.2 hPa North 9.7 km/h 33.8 km/h 29% 0 mm
16:44 8.3 °C -8.7 °C 1019.9 hPa NNW 8 km/h 25.7 km/h 29% 0 mm
16:49 8.4 °C -9.1 °C 1020.2 hPa NW 11.3 km/h 25.7 km/h 28% 0 mm
16:54 8 °C -9.4 °C 1020.2 hPa NW 14.5 km/h 35.4 km/h 28% 0 mm
17:04 7.9 °C -9.1 °C 1020.2 hPa WNW 17.7 km/h 30.6 km/h 29% 0 mm
17:09 8.2 °C -9.7 °C 1020.2 hPa NW 11.3 km/h 30.6 km/h 27% 0 mm
17:14 7.9 °C -10.4 °C 1020.2 hPa NW 19.3 km/h 35.4 km/h 26% 0 mm
17:19 7.7 °C -9.7 °C 1020.2 hPa NNW 11.3 km/h 35.4 km/h 28% 0 mm
17:24 7.8 °C -9.6 °C 1020.5 hPa NNW 14.5 km/h 33.8 km/h 28% 0 mm
17:29 7.9 °C -9.5 °C 1020.5 hPa NNW 12.9 km/h 30.6 km/h 28% 0 mm
17:39 7.5 °C -10.8 °C 1020.5 hPa NW 12.9 km/h 33.8 km/h 26% 0 mm
17:44 7.6 °C -9.8 °C 1020.5 hPa North 8 km/h 30.6 km/h 28% 0 mm
17:49 7.8 °C -10.1 °C 1020.5 hPa NNW 9.7 km/h 24.1 km/h 27% 0 mm
17:54 7.6 °C -10.3 °C 1020.9 hPa NW 14.5 km/h 29 km/h 27% 0 mm
17:59 7.4 °C -9.9 °C 1020.5 hPa NW 12.9 km/h 29 km/h 28% 0 mm
18:04 7.5 °C -10.8 °C 1020.5 hPa NW 11.3 km/h 24.1 km/h 26% 0 mm
18:09 7.4 °C -10.3 °C 1020.9 hPa NW 17.7 km/h 30.6 km/h 27% 0 mm
18:14 7.4 °C -9.9 °C 1020.9 hPa NNW 9.7 km/h 32.2 km/h 28% 0 mm
18:19 7.6 °C -9.8 °C 1020.5 hPa NW 8 km/h 32.2 km/h 28% 0 mm
18:24 7.7 °C -10.1 °C 1020.9 hPa NW 8 km/h 20.9 km/h 27% 0 mm
18:29 7.7 °C -9.7 °C 1020.9 hPa NNW 4.8 km/h 20.9 km/h 28% 0 mm
18:34 7.4 °C -9.9 °C 1020.9 hPa NW 9.7 km/h 25.7 km/h 28% 0 mm
18:39 7.2 °C -10.1 °C 1020.9 hPa NW 14.5 km/h 32.2 km/h 28% 0 mm
18:44 7.1 °C -10.2 °C 1020.9 hPa NW 12.9 km/h 32.2 km/h 28% 0 mm
18:49 7 °C -10.3 °C 1020.9 hPa NW 6.4 km/h 27.4 km/h 28% 0 mm
18:54 7 °C -10.3 °C 1020.9 hPa NW 14.5 km/h 27.4 km/h 28% 0 mm
18:59 6.8 °C -10 °C 1020.9 hPa NW 11.3 km/h 30.6 km/h 29% 0 mm
19:04 6.8 °C -10.1 °C 1020.9 hPa NW 9.7 km/h 30.6 km/h 29% 0 mm
19:09 6.7 °C -10.1 °C 1020.9 hPa NW 6.4 km/h 20.9 km/h 29% 0 mm
19:14 6.5 °C -10.3 °C 1020.9 hPa NW 11.3 km/h 27.4 km/h 29% 0 mm
19:19 6.3 °C -10.4 °C 1021.2 hPa NW 12.9 km/h 27.4 km/h 29% 0 mm
19:24 6.2 °C -10.1 °C 1020.9 hPa NNW 8 km/h 24.1 km/h 30% 0 mm
19:29 6.1 °C -10.2 °C 1021.2 hPa NNW 6.4 km/h 27.4 km/h 30% 0 mm
19:34 5.9 °C -9.9 °C 1021.2 hPa NW 6.4 km/h 27.4 km/h 31% 0 mm
19:39 5.8 °C -10.5 °C 1021.2 hPa NW 11.3 km/h 22.5 km/h 30% 0 mm
19:44 5.6 °C -10.2 °C 1021.2 hPa NNW 8 km/h 22.5 km/h 31% 0 mm
19:49 5.4 °C -10.3 °C 1021.2 hPa NW 4.8 km/h 20.9 km/h 31% 0 mm
19:54 5.3 °C -10.5 °C 1021.2 hPa NW 8 km/h 20.9 km/h 31% 0 mm
19:59 5.2 °C -10.6 °C 1021.2 hPa NW 9.7 km/h 20.9 km/h 31% 0 mm
20:04 5.1 °C -10.7 °C 1021.6 hPa NW 4.8 km/h 17.7 km/h 31% 0 mm
20:09 5.1 °C -10.7 °C 1021.6 hPa NNW 6.4 km/h 17.7 km/h 31% 0 mm
20:14 4.9 °C -10.8 °C 1021.6 hPa NW 3.2 km/h 17.7 km/h 31% 0 mm
20:19 4.8 °C -10.5 °C 1021.6 hPa NNW 8 km/h 16.1 km/h 32% 0 mm
20:24 4.8 °C -10.6 °C 1021.6 hPa NW 4.8 km/h 16.1 km/h 32% 0 mm
20:29 4.7 °C -10.2 °C 1021.6 hPa NW 4.8 km/h 14.5 km/h 33% 0 mm
20:34 4.7 °C -10.2 °C 1021.9 hPa NW 6.4 km/h 17.7 km/h 33% 0 mm
20:39 4.6 °C -10.3 °C 1021.9 hPa NW 6.4 km/h 17.7 km/h 33% 0 mm
20:44 4.5 °C -10.4 °C 1021.9 hPa NNW 3.2 km/h 14.5 km/h 33% 0 mm
20:49 4.4 °C -10.1 °C 1021.9 hPa NNW 3.2 km/h 14.5 km/h 34% 0 mm
20:54 4.3 °C -10.2 °C 1022.2 hPa Calm   12.9 km/h 34% 0 mm
20:59 4.1 °C -10 °C 1022.2 hPa Calm   4.8 km/h 35% 0 mm
21:04 4 °C -10.1 °C 1022.2 hPa NW 1.6 km/h 8 km/h 35% 0 mm
21:09 3.9 °C -10.2 °C 1022.2 hPa Calm   8 km/h 35% 0 mm
21:14 3.8 °C -9.9 °C 1022.6 hPa Calm   9.7 km/h 36% 0 mm
21:19 3.7 °C -9.6 °C 1022.6 hPa Calm   9.7 km/h 37% 0 mm
21:24 3.6 °C -9.4 °C 1022.6 hPa NNW 1.6 km/h 8 km/h 38% 0 mm
21:29 3.5 °C -9.5 °C 1022.6 hPa Calm   8 km/h 38% 0 mm
21:34 3.3 °C -9.3 °C 1022.9 hPa Calm   1.6 km/h 39% 0 mm
21:39 3.2 °C -9.8 °C 1022.9 hPa Calm   1.6 km/h 38% 0 mm
21:44 3.1 °C -9.2 °C 1022.9 hPa Calm     40% 0 mm
21:54 2.9 °C -9.3 °C 1022.9 hPa Calm     40% 0 mm
21:59 2.8 °C -9.4 °C 1022.9 hPa Calm   4.8 km/h 40% 0 mm
22:04 2.8 °C -9.5 °C 1023.2 hPa Calm   4.8 km/h 40% 0 mm
22:09 2.8 °C -9.5 °C 1023.2 hPa Calm   6.4 km/h 40% 0 mm
22:14 2.8 °C -9.1 °C 1023.2 hPa Calm   6.4 km/h 41% 0 mm
22:19 2.8 °C -9.5 °C 1023.2 hPa Calm   12.9 km/h 40% 0 mm
22:24 2.8 °C -9.2 °C 1023.2 hPa Calm   12.9 km/h 41% 0 mm
22:29 2.7 °C -9.2 °C 1023.2 hPa Calm   4.8 km/h 41% 0 mm
22:34 2.6 °C -9.3 °C 1023.2 hPa Calm   4.8 km/h 41% 0 mm
22:44 2.8 °C -8.8 °C 1023.6 hPa Calm   19.3 km/h 42% 0 mm
22:49 2.7 °C -8.9 °C 1023.6 hPa Calm   19.3 km/h 42% 0 mm
22:54 2.7 °C -8.9 °C 1023.6 hPa NW 3.2 km/h 14.5 km/h 42% 0 mm
22:59 2.8 °C -9.1 °C 1023.6 hPa NW 1.6 km/h 14.5 km/h 41% 0 mm
23:04 2.9 °C -9.1 °C 1023.6 hPa NW 1.6 km/h 11.3 km/h 41% 0 mm
23:09 2.9 °C -8.4 °C 1023.6 hPa Calm   11.3 km/h 43% 0 mm
23:14 2.7 °C -8.6 °C 1023.6 hPa Calm   6.4 km/h 43% 0 mm
23:19 2.6 °C -8.5 °C 1023.6 hPa Calm   3.2 km/h 44% 0 mm
23:24 2.4 °C -8.9 °C 1023.6 hPa Calm   8 km/h 43% 0 mm
23:29 2.3 °C -8.7 °C 1023.6 hPa NNW 1.6 km/h 8 km/h 44% 0 mm
23:34 2.4 °C -8.6 °C 1023.9 hPa Calm   6.4 km/h 44% 0 mm
23:39 2.4 °C -8.6 °C 1023.9 hPa Calm   6.4 km/h 44% 0 mm
23:44 2.3 °C -8.7 °C 1023.9 hPa Calm   6.4 km/h 44% 0 mm
23:49 2.3 °C -8.4 °C 1023.9 hPa Calm   9.7 km/h 45% 0 mm
23:54 2.2 °C -8.5 °C 1023.9 hPa Calm   9.7 km/h 45% 0 mm
23:59 2.1 °C -8.4 °C 1023.9 hPa Calm   4.8 km/h 46% 0 mm
Westford Weather
Compliments of Weather Underground

 
 
Current Radar Loop:

Copyright © WestfordWeather.net 2007-2014. All rights reserved.